Year,Month,Day,Hour,Minute,Value (Times are PST for temperature in C)
2012,06,25,00,00,9.60
2012,06,25,00,01,9.60
2012,06,25,00,02,9.60
2012,06,25,00,03,9.60
2012,06,25,00,04,9.60
2012,06,25,00,05,9.50
2012,06,25,00,06,9.50
2012,06,25,00,07,9.50
2012,06,25,00,08,9.40
2012,06,25,00,09,9.40
2012,06,25,00,10,9.40
2012,06,25,00,11,9.40
2012,06,25,00,12,9.40
2012,06,25,00,13,9.30
2012,06,25,00,14,9.30
2012,06,25,00,15,9.30
2012,06,25,00,16,9.30
2012,06,25,00,17,9.30
2012,06,25,00,18,9.30
2012,06,25,00,19,9.20
2012,06,25,00,20,9.20
2012,06,25,00,21,9.20
2012,06,25,00,22,9.20
2012,06,25,00,23,9.20
2012,06,25,00,24,9.20
2012,06,25,00,25,9.20
2012,06,25,00,26,9.10
2012,06,25,00,27,9.10
2012,06,25,00,28,9.10
2012,06,25,00,29,9.10
2012,06,25,00,30,9.10
2012,06,25,00,31,9.10
2012,06,25,00,32,9.10
2012,06,25,00,33,9.10
2012,06,25,00,34,9.00
2012,06,25,00,35,9.00
2012,06,25,00,36,9.00
2012,06,25,00,37,9.00
2012,06,25,00,38,9.00
2012,06,25,00,39,9.00
2012,06,25,00,40,9.00
2012,06,25,00,41,9.00
2012,06,25,00,42,9.00
2012,06,25,00,43,9.00
2012,06,25,00,44,9.00
2012,06,25,00,45,9.00
2012,06,25,00,46,8.90
2012,06,25,00,47,8.90
2012,06,25,00,48,8.90
2012,06,25,00,49,8.90
2012,06,25,00,50,8.90
2012,06,25,00,51,8.90
2012,06,25,00,52,8.90
2012,06,25,00,53,8.90
2012,06,25,00,54,8.90
2012,06,25,00,55,8.90
2012,06,25,00,56,8.90
2012,06,25,00,57,8.80
2012,06,25,00,58,8.80
2012,06,25,00,59,8.80
2012,06,25,01,00,8.80
2012,06,25,01,01,8.80
2012,06,25,01,02,8.80
2012,06,25,01,03,8.80
2012,06,25,01,04,8.80
2012,06,25,01,05,8.80
2012,06,25,01,06,8.80
2012,06,25,01,07,8.80
2012,06,25,01,08,8.80
2012,06,25,01,09,8.80
2012,06,25,01,10,8.70
2012,06,25,01,11,8.70
2012,06,25,01,12,8.70
2012,06,25,01,13,8.70
2012,06,25,01,14,8.70
2012,06,25,01,15,8.70
2012,06,25,01,16,8.70
2012,06,25,01,17,8.70
2012,06,25,01,18,8.70
2012,06,25,01,19,8.70
2012,06,25,01,20,8.70
2012,06,25,01,21,8.70
2012,06,25,01,22,8.70
2012,06,25,01,23,8.70
2012,06,25,01,24,8.70
2012,06,25,01,25,8.70
2012,06,25,01,26,8.70
2012,06,25,01,27,8.70
2012,06,25,01,28,8.70
2012,06,25,01,29,8.70
2012,06,25,01,30,8.70
2012,06,25,01,31,8.70
2012,06,25,01,32,8.70
2012,06,25,01,33,8.60
2012,06,25,01,34,8.70
2012,06,25,01,35,8.60
2012,06,25,01,36,8.60
2012,06,25,01,37,8.60
2012,06,25,01,38,8.60
2012,06,25,01,39,8.60
2012,06,25,01,40,8.60
2012,06,25,01,41,8.60
2012,06,25,01,42,8.60
2012,06,25,01,43,8.60
2012,06,25,01,44,8.60
2012,06,25,01,45,8.60
2012,06,25,01,46,8.60
2012,06,25,01,47,8.50
2012,06,25,01,48,8.50
2012,06,25,01,49,8.50
2012,06,25,01,50,8.50
2012,06,25,01,51,8.50
2012,06,25,01,52,8.50
2012,06,25,01,53,8.50
2012,06,25,01,54,8.50
2012,06,25,01,55,8.50
2012,06,25,01,56,8.50
2012,06,25,01,57,8.40
2012,06,25,01,58,8.40
2012,06,25,01,59,8.40
2012,06,25,02,00,8.40
2012,06,25,02,01,8.40
2012,06,25,02,02,8.40
2012,06,25,02,03,8.40
2012,06,25,02,04,8.40
2012,06,25,02,05,8.40
2012,06,25,02,06,8.30
2012,06,25,02,07,8.30
2012,06,25,02,08,8.30
2012,06,25,02,09,8.30
2012,06,25,02,10,8.30
2012,06,25,02,11,8.30
2012,06,25,02,12,8.20
2012,06,25,02,13,8.20
2012,06,25,02,14,8.20
2012,06,25,02,15,8.20
2012,06,25,02,16,8.20
2012,06,25,02,17,8.20
2012,06,25,02,18,8.10
2012,06,25,02,19,8.10
2012,06,25,02,20,8.10
2012,06,25,02,21,8.10
2012,06,25,02,22,8.10
2012,06,25,02,23,8.10
2012,06,25,02,24,8.10
2012,06,25,02,25,8.10
2012,06,25,02,26,8.10
2012,06,25,02,27,8.10
2012,06,25,02,28,8.10
2012,06,25,02,29,8.10
2012,06,25,02,30,8.10
2012,06,25,02,31,8.10
2012,06,25,02,32,8.10
2012,06,25,02,33,8.10
2012,06,25,02,34,8.10
2012,06,25,02,35,8.10
2012,06,25,02,36,8.10
2012,06,25,02,37,8.00
2012,06,25,02,38,8.00
2012,06,25,02,39,8.00
2012,06,25,02,40,8.00
2012,06,25,02,41,8.00
2012,06,25,02,42,8.00
2012,06,25,02,43,8.00
2012,06,25,02,44,8.00
2012,06,25,02,45,8.00
2012,06,25,02,46,8.00
2012,06,25,02,47,8.00
2012,06,25,02,48,7.90
2012,06,25,02,49,7.90
2012,06,25,02,50,7.90
2012,06,25,02,51,7.90
2012,06,25,02,52,7.90
2012,06,25,02,53,7.90
2012,06,25,02,54,7.90
2012,06,25,02,55,7.90
2012,06,25,02,56,7.90
2012,06,25,02,57,7.90
2012,06,25,02,58,7.80
2012,06,25,02,59,7.80
2012,06,25,03,00,7.80
2012,06,25,03,01,7.80
2012,06,25,03,02,7.80
2012,06,25,03,03,7.80
2012,06,25,03,04,7.80
2012,06,25,03,05,7.80
2012,06,25,03,06,7.80
2012,06,25,03,07,7.80
2012,06,25,03,08,7.80
2012,06,25,03,09,7.80
2012,06,25,03,10,7.80
2012,06,25,03,11,7.70
2012,06,25,03,12,7.70
2012,06,25,03,13,7.70
2012,06,25,03,14,7.70
2012,06,25,03,15,7.70
2012,06,25,03,16,7.70
2012,06,25,03,17,7.70
2012,06,25,03,18,7.70
2012,06,25,03,19,7.60
2012,06,25,03,20,7.60
2012,06,25,03,21,7.60
2012,06,25,03,22,7.60
2012,06,25,03,23,7.60
2012,06,25,03,24,7.60
2012,06,25,03,25,7.60
2012,06,25,03,26,7.60
2012,06,25,03,27,7.60
2012,06,25,03,28,7.60
2012,06,25,03,29,7.60
2012,06,25,03,30,7.60
2012,06,25,03,31,7.60
2012,06,25,03,32,7.60
2012,06,25,03,33,7.60
2012,06,25,03,34,7.60
2012,06,25,03,35,7.60
2012,06,25,03,36,7.60
2012,06,25,03,37,7.60
2012,06,25,03,38,7.50
2012,06,25,03,39,7.60
2012,06,25,03,40,7.50
2012,06,25,03,41,7.50
2012,06,25,03,42,7.50
2012,06,25,03,43,7.50
2012,06,25,03,44,7.50
2012,06,25,03,45,7.50
2012,06,25,03,46,7.50
2012,06,25,03,47,7.50
2012,06,25,03,48,7.40
2012,06,25,03,49,7.40
2012,06,25,03,50,7.40
2012,06,25,03,51,7.40
2012,06,25,03,52,7.40
2012,06,25,03,53,7.40
2012,06,25,03,54,7.40
2012,06,25,03,55,7.40
2012,06,25,03,56,7.40
2012,06,25,03,57,7.40
2012,06,25,03,58,7.40
2012,06,25,03,59,7.40
2012,06,25,04,00,7.40
2012,06,25,04,01,7.40
2012,06,25,04,02,7.40
2012,06,25,04,03,7.40
2012,06,25,04,04,7.40
2012,06,25,04,05,7.40
2012,06,25,04,06,7.40
2012,06,25,04,07,7.40
2012,06,25,04,08,7.40
2012,06,25,04,09,7.40
2012,06,25,04,10,7.40
2012,06,25,04,11,7.40
2012,06,25,04,12,7.40
2012,06,25,04,13,7.40
2012,06,25,04,14,7.40
2012,06,25,04,15,7.40
2012,06,25,04,16,7.40
2012,06,25,04,17,7.40
2012,06,25,04,18,7.40
2012,06,25,04,19,7.40
2012,06,25,04,20,7.40
2012,06,25,04,21,7.40
2012,06,25,04,22,7.40
2012,06,25,04,23,7.40
2012,06,25,04,24,7.40
2012,06,25,04,25,7.40
2012,06,25,04,26,7.30
2012,06,25,04,27,7.30
2012,06,25,04,28,7.30
2012,06,25,04,29,7.30
2012,06,25,04,30,7.30
2012,06,25,04,31,7.30
2012,06,25,04,32,7.30
2012,06,25,04,33,7.30
2012,06,25,04,34,7.30
2012,06,25,04,35,7.30
2012,06,25,04,36,7.30
2012,06,25,04,37,7.30
2012,06,25,04,38,7.30
2012,06,25,04,39,7.30
2012,06,25,04,40,7.30
2012,06,25,04,41,7.30
2012,06,25,04,42,7.30
2012,06,25,04,43,7.30
2012,06,25,04,44,7.30
2012,06,25,04,45,7.30
2012,06,25,04,46,7.30
2012,06,25,04,47,7.30
2012,06,25,04,48,7.30
2012,06,25,04,49,7.40
2012,06,25,04,50,7.40
2012,06,25,04,51,7.40
2012,06,25,04,52,7.40
2012,06,25,04,53,7.40
2012,06,25,04,54,7.40
2012,06,25,04,55,7.40
2012,06,25,04,56,7.30
2012,06,25,04,57,7.30
2012,06,25,04,58,7.30
2012,06,25,04,59,7.30
2012,06,25,05,00,7.30
2012,06,25,05,01,7.30
2012,06,25,05,02,7.20
2012,06,25,05,03,7.20
2012,06,25,05,04,7.20
2012,06,25,05,05,7.20
2012,06,25,05,06,7.20
2012,06,25,05,07,7.20
2012,06,25,05,08,7.20
2012,06,25,05,09,7.20
2012,06,25,05,10,7.20
2012,06,25,05,11,7.20
2012,06,25,05,12,7.20
2012,06,25,05,13,7.20
2012,06,25,05,14,7.20
2012,06,25,05,15,7.20
2012,06,25,05,16,7.10
2012,06,25,05,17,7.10
2012,06,25,05,18,7.10
2012,06,25,05,19,7.20
2012,06,25,05,20,7.20
2012,06,25,05,21,7.20
2012,06,25,05,22,7.20
2012,06,25,05,23,7.20
2012,06,25,05,24,7.20
2012,06,25,05,25,7.20
2012,06,25,05,26,7.20
2012,06,25,05,27,7.20
2012,06,25,05,28,7.20
2012,06,25,05,29,7.20
2012,06,25,05,30,7.10
2012,06,25,05,31,7.10
2012,06,25,05,32,7.10
2012,06,25,05,33,7.20
2012,06,25,05,34,7.10
2012,06,25,05,35,7.20
2012,06,25,05,36,7.10
2012,06,25,05,37,7.10
2012,06,25,05,38,7.20
2012,06,25,05,39,7.20
2012,06,25,05,40,7.20
2012,06,25,05,41,7.20
2012,06,25,05,42,7.20
2012,06,25,05,43,7.20
2012,06,25,05,44,7.20
2012,06,25,05,45,7.20
2012,06,25,05,46,7.20
2012,06,25,05,47,7.20
2012,06,25,05,48,7.20
2012,06,25,05,49,7.20
2012,06,25,05,50,7.20
2012,06,25,05,51,7.20
2012,06,25,05,52,7.20
2012,06,25,05,53,7.20
2012,06,25,05,54,7.20
2012,06,25,05,55,7.20
2012,06,25,05,56,7.20
2012,06,25,05,57,7.20
2012,06,25,05,58,7.20
2012,06,25,05,59,7.20
2012,06,25,06,00,7.20
2012,06,25,06,01,7.20
2012,06,25,06,02,7.20
2012,06,25,06,03,7.20
2012,06,25,06,04,7.20
2012,06,25,06,05,7.20
2012,06,25,06,06,7.20
2012,06,25,06,07,7.20
2012,06,25,06,08,7.20
2012,06,25,06,09,7.20
2012,06,25,06,10,7.20
2012,06,25,06,11,7.20
2012,06,25,06,12,7.20
2012,06,25,06,13,7.20
2012,06,25,06,14,7.20
2012,06,25,06,15,7.20
2012,06,25,06,16,7.20
2012,06,25,06,17,7.20
2012,06,25,06,18,7.20
2012,06,25,06,19,7.20
2012,06,25,06,20,7.20
2012,06,25,06,21,7.20
2012,06,25,06,22,7.20
2012,06,25,06,23,7.20
2012,06,25,06,24,7.20
2012,06,25,06,25,7.20
2012,06,25,06,26,7.20
2012,06,25,06,27,7.20
2012,06,25,06,28,7.20
2012,06,25,06,29,7.20
2012,06,25,06,30,7.20
2012,06,25,06,31,7.20
2012,06,25,06,32,7.20
2012,06,25,06,33,7.20
2012,06,25,06,34,7.20
2012,06,25,06,35,7.30
2012,06,25,06,36,7.30
2012,06,25,06,37,7.30
2012,06,25,06,38,7.30
2012,06,25,06,39,7.30
2012,06,25,06,40,7.30
2012,06,25,06,41,7.30
2012,06,25,06,42,7.30
2012,06,25,06,43,7.30
2012,06,25,06,44,7.30
2012,06,25,06,45,7.30
2012,06,25,06,46,7.30
2012,06,25,06,47,7.30
2012,06,25,06,48,7.40
2012,06,25,06,49,7.40
2012,06,25,06,50,7.40
2012,06,25,06,51,7.40
2012,06,25,06,52,7.40
2012,06,25,06,53,7.40
2012,06,25,06,54,7.40
2012,06,25,06,55,7.40
2012,06,25,06,56,7.40
2012,06,25,06,57,7.40
2012,06,25,06,58,7.40
2012,06,25,06,59,7.40
2012,06,25,07,00,7.50
2012,06,25,07,01,7.50
2012,06,25,07,02,7.50
2012,06,25,07,03,7.50
2012,06,25,07,04,7.50
2012,06,25,07,05,7.60
2012,06,25,07,06,7.60
2012,06,25,07,07,7.60
2012,06,25,07,08,7.60
2012,06,25,07,09,7.60
2012,06,25,07,10,7.60
2012,06,25,07,11,7.60
2012,06,25,07,12,7.60
2012,06,25,07,13,7.70
2012,06,25,07,14,7.70
2012,06,25,07,15,7.70
2012,06,25,07,16,7.70
2012,06,25,07,17,7.70
2012,06,25,07,18,7.70
2012,06,25,07,19,7.70
2012,06,25,07,20,7.70
2012,06,25,07,21,7.80
2012,06,25,07,22,7.80
2012,06,25,07,23,7.80
2012,06,25,07,24,7.80
2012,06,25,07,25,7.80
2012,06,25,07,26,7.80
2012,06,25,07,27,7.80
2012,06,25,07,28,7.90
2012,06,25,07,29,7.90
2012,06,25,07,30,7.90
2012,06,25,07,31,7.90
2012,06,25,07,32,8.00
2012,06,25,07,33,8.00
2012,06,25,07,34,8.10
2012,06,25,07,35,8.10
2012,06,25,07,36,8.10
2012,06,25,07,37,8.10
2012,06,25,07,38,8.10
2012,06,25,07,39,8.20
2012,06,25,07,40,8.20
2012,06,25,07,41,8.20
2012,06,25,07,42,8.20
2012,06,25,07,43,8.20
2012,06,25,07,44,8.30
2012,06,25,07,45,8.30
2012,06,25,07,46,8.30
2012,06,25,07,47,8.30
2012,06,25,07,48,8.30
2012,06,25,07,49,8.40
2012,06,25,07,50,8.40
2012,06,25,07,51,8.40
2012,06,25,07,52,8.40
2012,06,25,07,53,8.40
2012,06,25,07,54,8.50
2012,06,25,07,55,8.50
2012,06,25,07,56,8.50
2012,06,25,07,57,8.60
2012,06,25,07,58,8.60
2012,06,25,07,59,8.70
2012,06,25,08,00,8.70
2012,06,25,08,01,8.70
2012,06,25,08,02,8.80
2012,06,25,08,03,8.80
2012,06,25,08,04,8.90
2012,06,25,08,05,8.90
2012,06,25,08,06,8.90
2012,06,25,08,07,9.00
2012,06,25,08,08,9.10
2012,06,25,08,09,9.10
2012,06,25,08,10,9.10
2012,06,25,08,11,9.20
2012,06,25,08,12,9.20
2012,06,25,08,13,9.30
2012,06,25,08,14,9.30
2012,06,25,08,15,9.30
2012,06,25,08,16,9.40
2012,06,25,08,17,9.50
2012,06,25,08,18,9.50
2012,06,25,08,19,9.60
2012,06,25,08,20,9.60
2012,06,25,08,21,9.70
2012,06,25,08,22,9.70
2012,06,25,08,23,9.80
2012,06,25,08,24,9.90
2012,06,25,08,25,10.00
2012,06,25,08,26,10.00
2012,06,25,08,27,10.10
2012,06,25,08,28,10.10
2012,06,25,08,29,10.20
2012,06,25,08,30,10.20
2012,06,25,08,31,10.30
2012,06,25,08,32,10.30
2012,06,25,08,33,10.30
2012,06,25,08,34,10.40
2012,06,25,08,35,10.40
2012,06,25,08,36,10.50
2012,06,25,08,37,10.50
2012,06,25,08,38,10.60
2012,06,25,08,39,10.60
2012,06,25,08,40,10.60
2012,06,25,08,41,10.70
2012,06,25,08,42,10.70
2012,06,25,08,43,10.70
2012,06,25,08,44,10.80
2012,06,25,08,45,10.80
2012,06,25,08,46,10.90
2012,06,25,08,47,10.90
2012,06,25,08,48,11.00
2012,06,25,08,49,11.00
2012,06,25,08,50,11.10
2012,06,25,08,51,11.20
2012,06,25,08,52,11.20
2012,06,25,08,53,11.30
2012,06,25,08,54,11.30
2012,06,25,08,55,11.40
2012,06,25,08,56,11.50
2012,06,25,08,57,11.60
2012,06,25,08,58,11.60
2012,06,25,08,59,11.70
2012,06,25,09,00,11.80
2012,06,25,09,01,11.90
2012,06,25,09,02,12.00
2012,06,25,09,03,12.00
2012,06,25,09,04,12.10
2012,06,25,09,05,12.20
2012,06,25,09,06,12.30
2012,06,25,09,07,12.40
2012,06,25,09,08,12.50
2012,06,25,09,09,12.60
2012,06,25,09,10,12.60
2012,06,25,09,11,12.70
2012,06,25,09,12,12.80
2012,06,25,09,13,12.90
2012,06,25,09,14,13.00
2012,06,25,09,15,13.00
2012,06,25,09,16,13.10
2012,06,25,09,17,13.20
2012,06,25,09,18,13.20
2012,06,25,09,19,13.30
2012,06,25,09,20,13.30
2012,06,25,09,21,13.30
2012,06,25,09,22,13.40
2012,06,25,09,23,13.40
2012,06,25,09,24,13.50
2012,06,25,09,25,13.50
2012,06,25,09,26,13.60
2012,06,25,09,27,13.60
2012,06,25,09,28,13.70
2012,06,25,09,29,13.70
2012,06,25,09,30,13.80
2012,06,25,09,31,13.80
2012,06,25,09,32,13.90
2012,06,25,09,33,13.90
2012,06,25,09,34,14.00
2012,06,25,09,35,14.00
2012,06,25,09,36,14.10
2012,06,25,09,37,14.20
2012,06,25,09,38,14.20
2012,06,25,09,39,14.30
2012,06,25,09,40,14.30
2012,06,25,09,41,14.40
2012,06,25,09,42,14.40
2012,06,25,09,43,14.50
2012,06,25,09,44,14.60
2012,06,25,09,45,14.60
2012,06,25,09,46,14.70
2012,06,25,09,47,14.70
2012,06,25,09,48,14.80
2012,06,25,09,49,14.90
2012,06,25,09,50,15.00
2012,06,25,09,51,15.00
2012,06,25,09,52,15.00
2012,06,25,09,53,15.00
2012,06,25,09,54,15.00
2012,06,25,09,55,15.00
2012,06,25,09,56,15.00
2012,06,25,09,57,15.00
2012,06,25,09,58,15.00
2012,06,25,09,59,15.00
2012,06,25,10,00,15.00
2012,06,25,10,01,15.00
2012,06,25,10,02,15.00
2012,06,25,10,03,15.00
2012,06,25,10,04,15.00
2012,06,25,10,05,15.00
2012,06,25,10,06,15.00
2012,06,25,10,07,15.00
2012,06,25,10,08,15.00
2012,06,25,10,09,15.00
2012,06,25,10,10,15.00
2012,06,25,10,11,15.00
2012,06,25,10,12,15.00
2012,06,25,10,13,15.00
2012,06,25,10,14,15.00
2012,06,25,10,15,15.00
2012,06,25,10,16,15.00
2012,06,25,10,17,15.00
2012,06,25,10,18,15.00
2012,06,25,10,19,15.00
2012,06,25,10,20,15.00
2012,06,25,10,21,15.00
2012,06,25,10,22,15.00
2012,06,25,10,23,15.00
2012,06,25,10,24,15.00
2012,06,25,10,25,15.00
2012,06,25,10,26,15.00
2012,06,25,10,27,15.00
2012,06,25,10,28,15.00
2012,06,25,10,29,15.10
2012,06,25,10,30,15.10
2012,06,25,10,31,15.10
2012,06,25,10,32,15.10
2012,06,25,10,33,15.10
2012,06,25,10,34,15.10
2012,06,25,10,35,15.20
2012,06,25,10,36,15.20
2012,06,25,10,37,15.20
2012,06,25,10,38,15.20
2012,06,25,10,39,15.20
2012,06,25,10,40,15.30
2012,06,25,10,41,15.30
2012,06,25,10,42,15.40
2012,06,25,10,43,15.40
2012,06,25,10,44,15.50
2012,06,25,10,45,15.60
2012,06,25,10,46,15.60
2012,06,25,10,47,15.70
2012,06,25,10,48,15.70
2012,06,25,10,49,15.80
2012,06,25,10,50,15.90
2012,06,25,10,51,15.90
2012,06,25,10,52,16.00
2012,06,25,10,53,16.00
2012,06,25,10,54,16.10
2012,06,25,10,55,16.10
2012,06,25,10,56,16.20
2012,06,25,10,57,16.20
2012,06,25,10,58,16.20
2012,06,25,10,59,16.20
2012,06,25,11,00,16.20
2012,06,25,11,01,16.20
2012,06,25,11,02,16.20
2012,06,25,11,03,16.20
2012,06,25,11,04,16.20
2012,06,25,11,05,16.10
2012,06,25,11,06,16.10
2012,06,25,11,07,16.10
2012,06,25,11,08,16.10
2012,06,25,11,09,16.10
2012,06,25,11,10,16.10
2012,06,25,11,11,16.10
2012,06,25,11,12,16.10
2012,06,25,11,13,16.10
2012,06,25,11,14,16.10
2012,06,25,11,15,16.10
2012,06,25,11,16,16.20
2012,06,25,11,17,16.20
2012,06,25,11,18,16.20
2012,06,25,11,19,16.20
2012,06,25,11,20,16.30
2012,06,25,11,21,16.30
2012,06,25,11,22,16.30
2012,06,25,11,23,16.30
2012,06,25,11,24,16.30
2012,06,25,11,25,16.30
2012,06,25,11,26,16.30
2012,06,25,11,27,16.40
2012,06,25,11,28,16.40
2012,06,25,11,29,16.40
2012,06,25,11,30,16.40
2012,06,25,11,31,16.40
2012,06,25,11,32,16.40
2012,06,25,11,33,16.50
2012,06,25,11,34,16.50
2012,06,25,11,35,16.50
2012,06,25,11,36,16.60
2012,06,25,11,37,16.60
2012,06,25,11,38,16.60
2012,06,25,11,39,16.70
2012,06,25,11,40,16.70
2012,06,25,11,41,16.70
2012,06,25,11,42,16.80
2012,06,25,11,43,16.80
2012,06,25,11,44,16.90
2012,06,25,11,45,16.90
2012,06,25,11,46,17.00
2012,06,25,11,47,17.00
2012,06,25,11,48,17.10
2012,06,25,11,49,17.10
2012,06,25,11,50,17.20
2012,06,25,11,51,17.20
2012,06,25,11,52,17.20
2012,06,25,11,53,17.30
2012,06,25,11,54,17.30
2012,06,25,11,55,17.40
2012,06,25,11,56,17.40
2012,06,25,11,57,17.40
2012,06,25,11,58,17.40
2012,06,25,11,59,17.40
2012,06,25,12,00,17.50
2012,06,25,12,01,17.50
2012,06,25,12,02,17.50
2012,06,25,12,03,17.50
2012,06,25,12,04,17.60
2012,06,25,12,05,17.60
2012,06,25,12,06,17.50
2012,06,25,12,07,17.50
2012,06,25,12,08,17.50
2012,06,25,12,09,17.60
2012,06,25,12,10,17.60
2012,06,25,12,11,17.70
2012,06,25,12,12,17.70
2012,06,25,12,13,17.80
2012,06,25,12,14,17.80
2012,06,25,12,15,17.90
2012,06,25,12,16,18.00
2012,06,25,12,17,18.10
2012,06,25,12,18,18.10
2012,06,25,12,19,18.20
2012,06,25,12,20,18.20
2012,06,25,12,21,18.20
2012,06,25,12,22,18.10
2012,06,25,12,23,18.00
2012,06,25,12,24,18.00
2012,06,25,12,25,17.90
2012,06,25,12,26,17.90
2012,06,25,12,27,17.80
2012,06,25,12,28,17.80
2012,06,25,12,29,17.80
2012,06,25,12,30,17.90
2012,06,25,12,31,17.80
2012,06,25,12,32,17.80
2012,06,25,12,33,17.80
2012,06,25,12,34,17.70
2012,06,25,12,35,17.70
2012,06,25,12,36,17.70
2012,06,25,12,37,17.70
2012,06,25,12,38,17.70
2012,06,25,12,39,17.70
2012,06,25,12,40,17.80
2012,06,25,12,41,17.80
2012,06,25,12,42,17.80
2012,06,25,12,43,17.80
2012,06,25,12,44,17.80
2012,06,25,12,45,17.80
2012,06,25,12,46,17.80
2012,06,25,12,47,17.80
2012,06,25,12,48,17.90
2012,06,25,12,49,17.90
2012,06,25,12,50,18.00
2012,06,25,12,51,18.00
2012,06,25,12,52,18.10
2012,06,25,12,53,18.10
2012,06,25,12,54,18.10
2012,06,25,12,55,18.10
2012,06,25,12,56,18.20
2012,06,25,12,57,18.20
2012,06,25,12,58,18.20
2012,06,25,12,59,18.20
2012,06,25,13,00,18.20
2012,06,25,13,01,18.20
2012,06,25,13,02,18.20
2012,06,25,13,03,18.20
2012,06,25,13,04,18.20
2012,06,25,13,05,18.20
2012,06,25,13,06,18.20
2012,06,25,13,07,18.20
2012,06,25,13,08,18.20
2012,06,25,13,09,18.20
2012,06,25,13,10,18.20
2012,06,25,13,11,18.20
2012,06,25,13,12,18.30
2012,06,25,13,13,18.30
2012,06,25,13,14,18.30
2012,06,25,13,15,18.30
2012,06,25,13,16,18.40
2012,06,25,13,17,18.40
2012,06,25,13,18,18.40
2012,06,25,13,19,18.40
2012,06,25,13,20,18.40
2012,06,25,13,21,18.40
2012,06,25,13,22,18.40
2012,06,25,13,23,18.40
2012,06,25,13,24,18.40
2012,06,25,13,25,18.50
2012,06,25,13,26,18.50
2012,06,25,13,27,18.60
2012,06,25,13,28,18.60
2012,06,25,13,29,18.70
2012,06,25,13,30,18.80
2012,06,25,13,31,18.80
2012,06,25,13,32,18.80
2012,06,25,13,33,18.80
2012,06,25,13,34,18.80
2012,06,25,13,35,18.80
2012,06,25,13,36,18.80
2012,06,25,13,37,18.80
2012,06,25,13,38,18.80
2012,06,25,13,39,18.80
2012,06,25,13,40,18.90
2012,06,25,13,41,18.90
2012,06,25,13,42,18.80
2012,06,25,13,43,18.80
2012,06,25,13,44,18.80
2012,06,25,13,45,18.80
2012,06,25,13,46,18.70
2012,06,25,13,47,18.70
2012,06,25,13,48,18.80
2012,06,25,13,49,18.80
2012,06,25,13,50,18.80
2012,06,25,13,51,18.80
2012,06,25,13,52,18.80
2012,06,25,13,53,18.90
2012,06,25,13,54,18.90
2012,06,25,13,55,18.90
2012,06,25,13,56,19.00
2012,06,25,13,57,19.00
2012,06,25,13,58,19.00
2012,06,25,13,59,19.10
2012,06,25,14,00,19.10
2012,06,25,14,01,19.10
2012,06,25,14,02,19.20
2012,06,25,14,03,19.20
2012,06,25,14,04,19.20
2012,06,25,14,05,19.20
2012,06,25,14,06,19.10
2012,06,25,14,07,19.10
2012,06,25,14,08,19.10
2012,06,25,14,09,19.10
2012,06,25,14,10,19.10
2012,06,25,14,11,19.00
2012,06,25,14,12,19.00
2012,06,25,14,13,19.10
2012,06,25,14,14,19.10
2012,06,25,14,15,19.10
2012,06,25,14,16,19.10
2012,06,25,14,17,19.10
2012,06,25,14,18,19.10
2012,06,25,14,19,19.10
2012,06,25,14,20,19.10
2012,06,25,14,21,19.20
2012,06,25,14,22,19.20
2012,06,25,14,23,19.20
2012,06,25,14,24,19.20
2012,06,25,14,25,19.20
2012,06,25,14,26,19.20
2012,06,25,14,27,19.20
2012,06,25,14,28,19.20
2012,06,25,14,29,19.20
2012,06,25,14,30,19.20
2012,06,25,14,31,19.10
2012,06,25,14,32,19.10
2012,06,25,14,33,19.10
2012,06,25,14,34,19.10
2012,06,25,14,35,19.00
2012,06,25,14,36,19.00
2012,06,25,14,37,19.00
2012,06,25,14,38,18.90
2012,06,25,14,39,18.90
2012,06,25,14,40,18.90
2012,06,25,14,41,18.90
2012,06,25,14,42,18.80
2012,06,25,14,43,18.80
2012,06,25,14,44,18.80
2012,06,25,14,45,18.80
2012,06,25,14,46,18.80
2012,06,25,14,47,18.80
2012,06,25,14,48,18.80
2012,06,25,14,49,18.70
2012,06,25,14,50,18.70
2012,06,25,14,51,18.70
2012,06,25,14,52,18.70
2012,06,25,14,53,18.70
2012,06,25,14,54,18.70
2012,06,25,14,55,18.70
2012,06,25,14,56,18.70
2012,06,25,14,57,18.70
2012,06,25,14,58,18.60
2012,06,25,14,59,18.50
2012,06,25,15,00,18.50
2012,06,25,15,01,18.40
2012,06,25,15,02,18.40
2012,06,25,15,03,18.40
2012,06,25,15,04,18.30
2012,06,25,15,05,18.30
2012,06,25,15,06,18.30
2012,06,25,15,07,18.20
2012,06,25,15,08,18.20
2012,06,25,15,09,18.20
2012,06,25,15,10,18.10
2012,06,25,15,11,18.10
2012,06,25,15,12,18.00
2012,06,25,15,13,18.00
2012,06,25,15,14,18.00
2012,06,25,15,15,17.90
2012,06,25,15,16,17.90
2012,06,25,15,17,17.90
2012,06,25,15,18,17.90
2012,06,25,15,19,17.90
2012,06,25,15,20,17.90
2012,06,25,15,21,17.90
2012,06,25,15,22,17.90
2012,06,25,15,23,17.90
2012,06,25,15,24,18.00
2012,06,25,15,25,17.90
2012,06,25,15,26,17.90
2012,06,25,15,27,17.90
2012,06,25,15,28,17.90
2012,06,25,15,29,17.90
2012,06,25,15,30,17.90
2012,06,25,15,31,17.90
2012,06,25,15,32,17.90
2012,06,25,15,33,17.90
2012,06,25,15,34,18.00
2012,06,25,15,35,18.00
2012,06,25,15,36,18.10
2012,06,25,15,37,18.10
2012,06,25,15,38,18.10
2012,06,25,15,39,18.10
2012,06,25,15,40,18.10
2012,06,25,15,41,18.10
2012,06,25,15,42,18.10
2012,06,25,15,43,18.10
2012,06,25,15,44,18.10
2012,06,25,15,45,18.10
2012,06,25,15,46,18.10
2012,06,25,15,47,18.20
2012,06,25,15,48,18.20
2012,06,25,15,49,18.20
2012,06,25,15,50,18.20
2012,06,25,15,51,18.20
2012,06,25,15,52,18.20
2012,06,25,15,53,18.30
2012,06,25,15,54,18.30
2012,06,25,15,55,18.30
2012,06,25,15,56,18.40
2012,06,25,15,57,18.40
2012,06,25,15,58,18.50
2012,06,25,15,59,18.50
2012,06,25,16,00,18.60
2012,06,25,16,01,18.60
2012,06,25,16,02,18.70
2012,06,25,16,03,18.70
2012,06,25,16,04,18.80
2012,06,25,16,05,18.80
2012,06,25,16,06,18.90
2012,06,25,16,07,18.90
2012,06,25,16,08,18.90
2012,06,25,16,09,19.00
2012,06,25,16,10,19.00
2012,06,25,16,11,19.10
2012,06,25,16,12,19.10
2012,06,25,16,13,19.20
2012,06,25,16,14,19.20
2012,06,25,16,15,19.20
2012,06,25,16,16,19.30
2012,06,25,16,17,19.30
2012,06,25,16,18,19.30
2012,06,25,16,19,19.40
2012,06,25,16,20,19.50
2012,06,25,16,21,19.50
2012,06,25,16,22,19.60
2012,06,25,16,23,19.60
2012,06,25,16,24,19.70
2012,06,25,16,25,19.70
2012,06,25,16,26,19.70
2012,06,25,16,27,19.70
2012,06,25,16,28,19.70
2012,06,25,16,29,19.70
2012,06,25,16,30,19.70
2012,06,25,16,31,19.70
2012,06,25,16,32,19.60
2012,06,25,16,33,19.60
2012,06,25,16,34,19.50
2012,06,25,16,35,19.40
2012,06,25,16,36,19.40
2012,06,25,16,37,19.40
2012,06,25,16,38,19.30
2012,06,25,16,39,19.30
2012,06,25,16,40,19.30
2012,06,25,16,41,19.20
2012,06,25,16,42,19.20
2012,06,25,16,43,19.20
2012,06,25,16,44,19.10
2012,06,25,16,45,19.10
2012,06,25,16,46,19.10
2012,06,25,16,47,19.00
2012,06,25,16,48,19.00
2012,06,25,16,49,19.00
2012,06,25,16,50,19.00
2012,06,25,16,51,19.00
2012,06,25,16,52,18.90
2012,06,25,16,53,18.90
2012,06,25,16,54,18.90
2012,06,25,16,55,18.90
2012,06,25,16,56,19.00
2012,06,25,16,57,19.00
2012,06,25,16,58,19.00
2012,06,25,16,59,19.10
2012,06,25,17,00,19.10
2012,06,25,17,01,19.10
2012,06,25,17,02,19.10
2012,06,25,17,03,19.10
2012,06,25,17,04,19.10
2012,06,25,17,05,19.10
2012,06,25,17,06,19.10
2012,06,25,17,07,19.10
2012,06,25,17,08,19.10
2012,06,25,17,09,19.10
2012,06,25,17,10,19.10
2012,06,25,17,11,19.10
2012,06,25,17,12,19.00
2012,06,25,17,13,19.00
2012,06,25,17,14,19.00
2012,06,25,17,15,19.00
2012,06,25,17,16,19.00
2012,06,25,17,17,19.00
2012,06,25,17,18,19.00
2012,06,25,17,19,19.00
2012,06,25,17,20,19.00
2012,06,25,17,21,19.00
2012,06,25,17,22,19.00
2012,06,25,17,23,19.00
2012,06,25,17,24,19.00
2012,06,25,17,25,19.10
2012,06,25,17,26,19.00
2012,06,25,17,27,19.00
2012,06,25,17,28,19.00
2012,06,25,17,29,19.00
2012,06,25,17,30,19.00
2012,06,25,17,31,19.00
2012,06,25,17,32,19.00
2012,06,25,17,33,19.00
2012,06,25,17,34,19.00
2012,06,25,17,35,19.00
2012,06,25,17,36,19.00
2012,06,25,17,37,19.00
2012,06,25,17,38,19.00
2012,06,25,17,39,19.00
2012,06,25,17,40,19.00
2012,06,25,17,41,18.90